Theta_e
339 339 339 343 349 348 346 346 346 346 345 343 342 340 336 334 333 334 331 328 326 325 324 322 321 323 319 318 319 319 316 315 312 314 316 322 324 325 325 327 328 331 333
332 335 342 345 346 346 344 343 343 343 343 340 337 333 329 329 329 325 322 320 319 318 318 321 321 320 323 323 319 321 319 320 316 315 320 317 322 324 325 325 324 325 329
343 343 343 343 343 343 343 342 342 339 337 333 329 326 324 325 323 322 321 320 320 321 321 321 321 321 322 321 322 320 319 317 317 314 314 317 318 319 320 323 323 324 324
341 343 343 341 342 341 341 339 338 334 329 328 324 321 322 321 321 322 322 322 323 321 323 322 321 320 320 320 319 319 319 318 318 315 313 315 315 320 318 315 315 319 319
340 340 341 341 342 341 340 337 334 331 327 323 322 321 323 323 319 322 323 323 323 322 322 320 321 318 315 316 315 317 318 315 313 313 311 313 310 311 314 314 314 315 318
338 337 339 340 340 340 337 335 332 327 325 323 320 321 321 320 307 309 312 321 322 321 319 319 320 319 317 314 314 313 313 313 313 312 311 311 316 315 314 314 314 313 310
336 337 336 337 334 335 332 331 328 326 326 324 322 322 322 325 305 306 310 318 319 319 318 318 317 316 316 315 312 311 312 311 311 313 312 313 315 318 318 317 316 315 313
329 328 329 329 327 328 328 327 327 327 326 325 324 324 324 320 304 304 306 318 318 318 318 318 318 316 313 310 312 313 314 315 315 313 313 313 314 315 318 318 317 317 316
322 323 321 325 326 325 325 326 327 325 324 325 324 324 323 323 303 302 307 317 316 316 316 316 316 314 301 301 310 311 312 313 312 309 307 305 303 303 306 311 310 310 310
321 323 325 324 320 319 323 324 325 324 323 323 322 323 309 319 301 301 307 314 314 312 316 314 307 310 300 299 309 311 310 311 312 313 311 309 308 313 306 313 313 309 309
320 323 322 323 323 323 324 324 323 323 322 321 320 320 319 315 314 301 301 313 312 311 309 309 311 301 297 297 297 310 310 308 310 313 312 312 313 314 314 316 316 315 311
320 321 320 322 320 321 323 323 322 321 318 317 316 316 315 317 303 302 300 300 303 308 310 309 310 296 296 297 299 298 298 300 312 312 311 310 309 310 312 315 317 316 315
321 322 323 323 322 321 320 320 315 317 314 313 311 309 309 311 311 303 301 300 302 306 308 304 299 297 297 299 299 299 298 311 311 309 307 308 309 312 313 314 314 314 313
321 320 320 318 318 320 317 316 315 314 312 310 308 307 309 309 309 308 307 307 303 304 304 307 304 301 299 302 305 307 309 310 308 307 305 307 310 313 311 310 310 311 309
316 314 314 314 316 315 314 314 313 313 308 310 310 309 307 305 305 298 298 303 303 301 299 306 305 306 306 306 305 307 307 306 306 305 306 306 307 310 308 309 308 310 308
316 313 311 311 313 312 311 313 296 298 297 297 297 300 309 298 294 295 295 294 294 294 304 304 304 304 302 301 301 301 302 302 303 305 305 306 306 306 303 306 307 309 309
316 316 314 313 314 309 310 310 309 302 298 297 296 295 294 291 294 294 295 296 294 296 304 303 300 300 300 301 301 301 301 303 305 303 304 304 304 302 301 303 305 306 308
318 304 315 313 310 310 311 312 313 310 308 309 298 300 293 293 293 294 295 297 303 302 303 301 299 300 300 300 301 302 304 305 304 302 303 302 300 300 300 303 303 308 307
316 313 314 309 312 308 314 314 312 311 311 310 307 302 298 294 294 295 297 304 302 302 302 300 300 301 301 302 302 302 304 304 303 302 303 301 300 300 301 302 306 298 300
314 303 304 313 311 313 311 308 308 311 311 307 308 309 309 307 304 304 305 304 304 302 303 302 300 300 300 301 303 303 302 303 303 301 303 305 302 302 302 301 302 299 299
313 312 301 311 309 310 309 307 308 309 307 308 312 304 289 306 305 307 304 303 303 304 303 303 302 300 301 302 301 303 301 303 303 302 304 304 301 301 302 301 300 300 300
316 314 311 311 310 308 306 308 309 310 310 310 311 310 290 308 308 306 304 304 304 304 305 304 302 302 302 303 303 303 300 298 303 303 303 304 302 302 302 301 301 301 303
315 313 312 309 309 305 308 310 310 311 308 307 308 308 306 305 304 305 305 304 304 304 305 304 304 303 303 304 303 303 301 292 293 302 304 304 302 304 302 301 302 300 301
311 311 311 312 308 310 312 311 308 300 304 303 304 304 304 302 303 303 303 304 303 303 304 303 303 303 304 304 304 304 302 293 290 303 305 304 304 303 302 302 300 300 301
307 307 307 307 307 308 308 305 304 303 302 303 302 301 301 302 301 302 304 303 303 302 302 302 302 302 303 303 302 300 292 286 288 287 306 307 305 305 305 302 302 303 303
307 306 306 306 306 306 305 304 303 303 301 302 303 303 301 300 300 300 300 299 300 300 300 301 301 302 303 302 298 290 286 286 287 286 297 308 304 305 305 306 304 304 305
Wind_Speed
16 15 11 12 5 5 6 8 6 7 6 5 7 7 5 5 3 1 2 2 2 3 4 4 6 6 6 8 8 8 9 9 10 9 10 10 11 12 12 12 11 7 10
14 14 12 6 8 7 6 7 7 8 8 9 9 7 5 3 2 1 2 4 4 4 4 5 7 7 7 8 9 7 9 10 10 13 12 11 11 11 11 12 11 9 7
12 10 10 9 8 9 9 8 9 9 10 9 7 5 3 2 3 1 2 4 5 5 6 8 9 8 8 9 9 10 10 10 10 11 13 12 12 10 10 11 12 11 9
11 12 11 10 10 10 10 10 10 9 8 6 4 4 3 3 2 1 2 5 6 6 6 7 9 9 8 8 10 11 11 9 12 13 10 13 11 9 9 10 11 9 9
13 11 11 9 10 11 11 10 9 8 6 5 5 4 2 1 2 3 5 7 8 8 8 9 10 5 5 6 7 9 11 12 12 13 13 11 7 9 7 9 11 10 9
11 10 9 10 9 9 9 9 8 7 6 6 5 3 3 4 8 4 5 8 7 9 9 10 9 8 8 5 6 8 10 12 15 14 14 13 12 12 10 11 7 10 11
8 9 8 8 6 6 7 7 7 5 5 5 4 5 5 2 6 2 6 9 8 9 9 8 7 4 5 8 9 10 13 13 16 14 16 17 17 15 13 11 12 9 10
10 9 7 4 7 6 2 4 4 4 4 4 4 4 5 5 5 4 8 10 8 6 7 6 6 7 7 7 12 12 11 11 10 10 12 12 12 11 11 10 11 12 12
10 7 3 5 5 3 6 5 2 3 4 4 4 4 4 3 4 2 8 8 7 8 7 8 5 7 10 3 10 13 12 12 5 9 11 13 15 14 11 11 12 13 11
5 5 5 5 3 2 3 1 1 4 4 6 5 4 2 5 6 5 7 8 8 7 9 4 11 7 4 1 10 12 12 11 11 11 9 8 10 12 16 12 11 12 11
3 2 4 4 3 2 2 3 3 4 4 4 5 5 4 5 6 5 7 9 9 9 9 6 4 2 6 8 8 11 10 10 14 11 8 7 5 7 7 9 11 11 12
3 3 5 6 4 4 4 3 3 5 6 7 6 7 5 3 4 6 5 6 8 6 9 8 8 13 11 13 11 6 11 11 10 10 10 6 7 8 7 8 10 11 10
4 6 8 9 8 7 6 6 7 5 6 7 6 5 6 7 7 6 4 5 3 6 6 8 12 12 15 15 10 11 13 8 8 10 8 8 8 8 11 9 8 9 10
11 11 9 8 7 5 5 7 6 6 5 3 4 5 5 5 7 7 7 7 5 7 8 9 5 10 13 11 9 6 8 5 8 8 9 9 10 7 8 6 8 5 7
12 10 12 10 8 7 4 4 7 7 8 8 5 5 4 7 7 5 6 9 9 10 12 8 7 7 8 9 10 10 9 9 9 9 10 10 10 9 10 6 5 6 6
4 5 5 5 6 5 6 4 7 10 5 6 6 8 5 9 6 4 2 4 8 11 8 7 8 10 10 9 7 7 7 8 8 10 8 10 10 9 8 8 4 8 7
6 5 3 2 3 4 6 4 3 4 4 4 4 5 6 6 5 3 9 8 10 12 8 9 8 7 7 7 8 7 7 7 11 8 8 9 10 8 7 7 6 5 6
5 3 3 4 3 5 4 3 2 3 5 6 4 5 6 3 2 3 10 10 7 7 8 9 7 7 8 9 9 10 11 11 9 9 8 9 7 8 8 7 6 6 4
4 5 3 3 2 4 2 1 3 3 2 1 8 4 7 7 6 8 10 8 8 8 8 6 6 7 7 10 11 9 11 11 10 8 9 4 7 7 9 8 1 1 10
7 7 4 2 3 2 3 3 3 2 2 3 4 4 4 2 4 5 4 6 8 7 8 9 5 6 7 7 9 11 13 14 11 10 12 11 9 7 7 7 9 10 9
6 6 4 1 2 5 4 8 5 4 4 5 3 2 3 6 5 3 4 5 6 7 8 9 9 7 7 8 11 11 9 14 11 10 12 11 8 7 7 7 9 9 9
3 1 1 3 7 5 3 2 5 7 7 6 5 2 0 6 3 4 4 6 6 7 7 8 9 9 8 9 9 11 11 11 14 12 13 11 8 8 7 7 8 7 7
3 3 3 4 2 1 4 5 4 3 4 6 7 6 7 8 7 6 7 6 7 7 7 8 8 9 9 9 8 9 10 8 10 13 11 9 6 6 5 5 7 7 7
6 5 4 3 6 5 2 1 5 4 8 8 8 8 7 5 5 4 4 6 6 7 7 7 8 11 10 10 9 10 11 10 8 12 15 9 7 5 4 5 5 5 3
8 6 6 6 5 5 5 7 7 8 8 7 6 4 4 4 5 6 6 7 8 8 9 9 8 11 12 12 13 15 14 12 11 11 11 9 7 6 7 6 3 1 1
8 8 7 7 7 7 6 6 7 7 6 4 4 5 8 7 8 8 8 8 8 7 8 7 8 11 11 10 14 13 8 11 11 13 10 8 3 4 2 7 7 3 3
Wind_Direction
114 125 209 243 228 152 177 173 172 174 180 181 150 161 167 145 140 89 13 332 331 349 334 309 311 305 303 310 299 292 288 288 293 302 312 297 306 296 295 294 283 274 263
145 163 190 175 178 163 146 154 171 175 154 147 148 154 144 128 99 30 359 22 358 337 321 310 306 299 303 280 270 292 294 297 285 302 294 287 281 283 280 274 281 275 249
153 152 149 162 154 149 152 152 153 151 147 148 152 147 137 128 141 132 8 348 318 303 304 300 301 302 294 299 306 293 303 296 292 294 299 295 281 287 281 274 272 260 272
149 158 161 156 150 144 146 154 159 152 149 148 132 124 154 147 169 261 288 284 289 288 293 293 294 293 291 307 298 302 284 288 290 279 274 267 277 281 275 273 274 283 282
142 148 140 136 144 153 161 159 155 156 158 161 173 174 175 174 228 285 300 293 291 300 293 290 289 358 289 297 308 309 309 292 299 298 291 297 290 287 293 301 295 290 272
123 121 131 146 152 163 151 150 163 164 177 200 205 241 240 272 78 52 311 292 293 290 296 303 301 242 188 250 246 269 286 289 286 285 286 284 284 276 276 283 304 288 292
121 129 128 125 141 159 155 166 176 184 197 213 237 262 270 225 101 214 252 286 300 307 298 305 302 342 305 344 322 281 261 239 244 280 280 277 283 282 286 278 268 277 282
96 88 102 100 110 144 164 194 198 217 238 246 262 284 281 108 136 237 257 274 298 313 302 300 305 301 63 359 328 319 321 310 309 308 288 282 291 316 304 286 282 281 270
80 73 71 170 140 120 219 191 264 306 312 304 297 285 294 124 129 290 311 307 313 303 299 302 326 305 96 70 313 315 326 314 303 231 270 283 281 282 275 282 269 266 266
143 182 163 138 152 109 78 156 340 310 295 318 339 6 95 328 99 25 346 305 314 309 298 315 179 257 24 64 309 301 308 336 322 321 308 272 261 267 241 249 269 263 258
39 117 135 112 94 60 37 33 13 27 12 360 329 317 290 43 65 41 356 314 338 333 322 326 60 152 359 311 272 278 310 316 300 292 320 320 290 255 254 230 250 262 277
128 119 86 60 22 61 71 69 47 5 321 322 316 314 19 38 79 81 3 340 338 314 311 326 323 358 319 291 280 320 292 283 280 288 293 298 317 328 319 300 271 256 271
86 50 57 58 54 39 20 2 332 330 321 339 350 328 3 36 103 113 85 354 327 311 323 313 287 276 269 267 225 267 270 278 309 305 324 315 313 340 320 308 279 266 262
78 63 55 57 16 19 347 349 330 347 3 346 359 25 63 86 46 23 11 8 345 319 353 302 295 271 267 268 277 307 327 330 317 325 319 325 319 327 326 316 290 253 241
69 47 28 16 358 331 341 18 348 55 13 340 32 46 48 54 48 17 360 13 359 346 316 326 341 342 338 354 353 344 340 337 326 322 312 317 323 333 332 310 289 260 251
83 43 25 333 335 334 342 136 71 87 52 41 43 24 60 63 35 22 258 286 319 319 324 1 6 6 6 354 340 332 337 334 329 317 322 322 336 342 318 310 273 284 247
42 17 4 327 15 4 354 356 102 129 132 132 113 71 55 40 45 334 299 280 269 312 17 22 14 359 347 347 351 347 345 342 328 332 324 5 341 311 303 303 291 259 248
19 130 36 76 16 1 29 25 341 126 149 160 128 111 113 109 81 334 302 307 19 15 10 28 14 1 354 345 337 348 350 349 349 334 334 10 333 317 309 299 276 242 170
31 81 96 78 43 10 6 158 98 59 32 51 117 191 172 187 223 256 278 2 13 16 2 45 13 345 8 353 357 356 350 355 338 346 329 19 342 324 319 317 250 58 108
88 56 89 235 93 63 61 48 23 14 348 358 9 19 16 266 183 228 25 3 5 18 8 359 26 351 4 1 12 360 354 343 3 352 338 14 351 339 350 359 69 83 85
94 131 353 276 37 39 351 31 346 327 331 330 318 87 33 311 315 359 23 355 13 6 16 350 357 18 346 9 1 350 16 350 350 356 334 29 0 1 24 47 75 84 93
61 74 114 23 38 32 54 271 300 323 323 350 349 65 207 303 307 338 352 336 12 10 8 358 356 3 359 356 9 351 10 354 346 346 337 26 12 16 33 46 54 62 84
50 17 29 101 203 245 242 303 318 301 27 31 37 49 44 30 20 14 9 337 353 357 359 358 353 5 8 347 4 350 11 347 329 325 339 344 33 19 23 38 56 60 65
28 43 70 23 16 328 55 43 81 52 41 40 42 39 33 24 3 5 331 0 345 341 354 353 356 359 355 352 356 356 20 354 326 325 333 327 73 25 47 64 49 63 78
31 31 42 36 34 30 54 39 37 48 55 52 50 22 330 331 8 7 353 355 351 347 353 347 347 348 351 349 10 355 1 335 329 320 329 330 66 61 129 93 122 134 184
52 53 47 43 34 33 30 33 35 40 53 42 17 6 17 9 6 11 359 3 349 346 344 344 352 349 351 11 7 342 333 337 335 329 326 331 52 70 57 103 109 136 146